This demonstration page uses our WeatherBlox Daily Observations layout. Learn more.

Left ArrowRight Arrow

39.08367, -84.50855

Hourly Observations for June 26, 2022

Temp ( °F °C ) Dew Point ( °F °C ) Humidity (%) Winds ( mph kmh ) Pressure ( in mb ) Visibility ( mi km ) Precip ( " mm )
12:53 am 00:53 Clear 73 22.8 70 21.1 90 90 Calm 30.01 1016 10 16 0.00 0.00
1:53 am 01:53 Mostly Clear 71 21.7 70 21.1 96 96 Calm 30.01 1016 9 14 0.00 0.00
2:53 am 02:53 Mostly Clear 75 23.9 70 21.1 84 84 Calm 29.99 1016 10 16 0.00 0.00
3:53 am 03:53 Clear 73 22.8 71 21.7 94 94 Calm 30.01 1016 9 14 0.00 0.00
4:53 am 04:53 Partly Cloudy 74 23.3 71 21.7 91 91 Calm 30.01 1016 10 16 0.00 0.00
5:53 am 05:53 Mostly Cloudy 73 22.8 71 21.7 94 94 WSW 6 9 30.01 1016 9 14 0.01 0.25
6:53 am 06:53 Sunny 73 22.8 71 21.7 94 94 VRB 5 7 29.99 1016 10 16 0.00 0.00
7:53 am 07:53 Sunny 75 23.9 72 22.2 90 90 SW 7 11 30.02 1017 8 13 0.00 0.00
8:53 am 08:53 Sunny 78 25.6 73 22.8 85 85 S 6 9 30.01 1016 10 16 0.00 0.00
9:53 am 09:53 Sunny 80 26.7 73 22.8 79 79 SW 5 7 30.02 1017 10 16 0.00 0.00
10:53 am 10:53 Sunny 83 28.3 70 21.1 65 65 WSW 5 7 30.03 1017 10 16 0.00 0.00
11:53 am 11:53 Sunny 84 28.9 69 20.6 61 61 W 6 9 30.04 1017 10 16 0.00 0.00
12:53 pm 12:53 Sunny 85 29.4 66 18.9 53 53 W 6 9 30.04 1017 10 16 0.00 0.00
1:53 pm 13:53 Mostly Cloudy 84 28.9 69 20.6 61 61 W 14 22 30.04 1017 10 16 0.00 0.00
2:53 pm 14:53 Mostly Cloudy 85 29.4 70 21.1 61 61 WSW 8 13 30.02 1017 10 16 0.00 0.00
3:53 pm 15:53 Partly Cloudy 86 30 71 21.7 61 61 W 10 17 30.00 1016 10 16 0.00 0.00
4:53 pm 16:53 Mostly Cloudy 86 30 71 21.7 61 61 W 10 17 29.98 1015 10 16 0.00 0.00
5:53 pm 17:53 Cloudy 84 28.9 70 21.1 63 63 WSW 13 20 29.98 1015 10 16 0.00 0.00
6:53 pm 18:53 Cloudy 82 27.8 70 21.1 67 67 WSW 8 13 29.97 1015 10 16 0.00 0.00
7:53 pm 19:53 Partly Cloudy 80 26.7 73 22.8 79 79 NNE 5 7 29.98 1015 10 16 0.00 0.00
8:53 pm 20:53 Partly Cloudy 78 25.6 74 23.3 87 87 Calm 30.01 1016 10 16 0.00 0.00
9:53 pm 21:53 Partly Cloudy 78 25.6 71 21.7 79 79 WSW 3 6 30.02 1017 10 16 0.00 0.00
10:53 pm 22:53 Mostly Cloudy 78 25.6 71 21.7 79 79 N 9 15 30.04 1017 10 16 0.00 0.00
11:12 pm 23:12 Mostly Cloudy 77 25 69 20.6 77 77 NNW 7 11 30.04 1017 10 16 0.00 0.00
11:34 pm 23:34 Mostly Cloudy 77 25 69 20.6 77 77 NNW 5 7 30.05 1018 10 16 0.00 0.00
11:53 pm 23:53 Mostly Cloudy 77 25 71 21.7 82 82 NW 6 9 30.06 1018 10 16 0.00 0.00

Powered by AerisWeather